Location: Clermont
(50.2608°N, 4.3172°E)
Time: 22:57:16
(UTC+00:00)

Iridium 4 Rocket - Pass Details

Date: 13 August 2020
Orbit: 586 x 903 km, 86.9° (Epoch: 23 September)

Event Time Altitude Azimuth Distance (km) Brightness Sun altitude
Exits shadow 22:05:12 44° 218° (SW) 836 3.5 -21.6°
Maximum altitude 22:06:19 61° 276° (W) 678 3.3 -21.7°
Drops below altitude 10° 22:10:27 10° 357° (N) 1,924 6.5 -22.0°
Sets 22:12:40 0° 1° (N) 2,830 7.5 -22.2°
